Find SBS 2

NORAD ID: 12855 Int'l Des: 1981-096 Owner: SBS Country: US operational
HEOCIRCULAR

Live-Position

3D-Globus wird geladen...

Über SBS 2

Beschreibung wird geladen...

Nächste Überflüge

Passes for default location (London). Set your location on the main map for personalized predictions.

Höhenverlauf

Loading altitude history...

Zweizeiliger Elementsatz

1 12855U 81096A 26105.77521919 -.00000328 00000-0 00000+0 0 9993
2 12855 10.3615 321.8609 0004014 258.3500 7.3483 1.00120596117985
Epoch: 15. Apr. 2026 • Age: 13 hours

Aktueller Status

Höhe 35844.1 km
Geschwindigkeit 3.07 km/s
Subsatellitenpunkt 10.30°N, 104.36°E
Startdatum 24. Sept. 1981
Alter 44.5 years
Typ other

Technische Details

Klassifizierung Payload
Masse 521.00 kg
Trockenmasse 424.00 kg
Gesamtmasse 1064.00 kg
Länge 6.60 m
Durchmesser 2.20 m
Spannweite 6.60 m
Form Cyl
Hersteller HSES
Bus-Typ HS-376
Phasenstatus Unknown Active Status
Besitzer/Staat SBS/US

Most Searched